Weather observations for the past three days for
Springfield-Branson National Airport
Imperial (Metric)
Date Time (cdt) Wind (mph) Vis. (mi.) Weather Sky Cond. Temperature (ºF) Relative Humidity Wind Chill (°F) Heat Index (°F) Pressure Precipitation (in)
Air Dwpt 6 hour altimeter (in) sea level (mb) 1 hr 3 hr 6 hr
Max. Min.
14 03:52 SE 9 10.00 Thunderstorm Light Rain FEW025 SCT090 BKN110 68 66.9 96% 30.06 1016.6 0.1 0.89
14 02:52 SE 8 5.00 Thunderstorm Rain Fog/Mist BKN033 BKN080 OVC090 68 66.9 96% 30.06 1016.7 0.79
14 01:52 NE 31 G 43 10.00 Squalls and Windy FEW038 SCT050 BKN075 77 69.1 77% 79 30.04 1015.6
14 00:52 S 8 10.00 Fair CLR 75 69.1 84.9 73.9 82% 75 29.98 1013.7
13 23:52 S 6 10.00 Fair CLR 75.9 69.1 79% 77 29.97 1013.4
13 22:52 SW 6 10.00 Fair CLR 77 69.1 77% 79 29.96 1013.0
13 21:52 SW 7 10.00 Fair CLR 75.9 69.1 79% 77 29.91 1011.6
13 20:52 S 8 10.00 Fair CLR 78.1 69.1 74% 80 29.89 1010.8
13 18:52 S 12 10.00 Fair CLR 84 70 88 84 63% 88 29.9 1011.1
13 17:52 SW 14 10.00 Fair CLR 88 69.1 54% 92 29.91 1011.4
13 16:52 SW 15 G 20 10.00 Fair CLR 88 70 55% 93 29.93 1012.1
13 15:52 S 14 10.00 Fair CLR 88 71.1 57% 94 29.93 1012.3
13 14:52 SW 14 10.00 Fair CLR 87.1 70 57% 92 29.94 1012.5
13 13:52 SW 9 10.00 Fair CLR 86 71.1 61% 92 29.95 1013.0
13 12:52 SW 10 10.00 Fair CLR 84.9 70 84.9 66.9 61% 89 29.97 1013.5
13 11:52 SW 13 10.00 Fair CLR 81 69.1 67% 84 29.97 1013.5
13 10:52 SW 12 10.00 Fair CLR 82 68 63% 85 29.98 1013.7
13 09:52 SW 10 10.00 Fair CLR 80.1 68 67% 83 29.98 1013.8
13 08:52 SW 12 10.00 Fair CLR 77 66 69% 79 29.97 1013.6
13 07:52 S 12 10.00 Fair CLR 72 64.9 79% 29.97 1013.6
13 06:52 S 8 10.00 Fair CLR 66.9 64 70 66 91% 29.96 1013.4
13 05:52 S 7 10.00 Fair CLR 66.9 63 87% 29.95 1012.9
13 04:52 S 6 10.00 Fair CLR 66 63 90% 29.94 1012.5
13 03:52 S 5 10.00 Fair CLR 66.9 63 87% 29.94 1012.4
13 02:52 S 9 10.00 Fair CLR 68 63 84% 29.92 1012.0
13 01:52 S 9 10.00 Fair CLR 69.1 64 84% 29.93 1012.4
13 00:52 S 7 10.00 Fair CLR 70 64 82.9 69.1 82% 29.95 1012.9
12 23:52 S 8 10.00 Fair CLR 72 64 76% 29.96 1013.3
12 22:52 S 7 10.00 Fair CLR 73 64 74% 29.96 1013.2
12 21:52 S 8 10.00 Fair CLR 73.9 64 71% 29.94 1012.7
12 20:52 S 7 10.00 Fair CLR 75.9 64 67% 78 29.94 1012.5
12 19:52 S 8 10.00 Fair CLR 81 64 57% 83 29.95 1012.8
12 18:52 S 10 10.00 Fair CLR 82.9 64 84 81 53% 84 29.95 1013.0
12 17:52 S 10 10.00 Fair CLR 84 64 51% 85 29.95 1013.0
12 16:52 SW 9 10.00 Fair CLR 84 62.1 48% 85 29.97 1013.6
12 15:52 S 10 10.00 Fair CLR 84 63 49% 85 29.98 1014.0
12 14:52 S 9 10.00 Fair CLR 82.9 64 53% 84 29.99 1014.5
12 13:52 S 10 10.00 Fair CLR 82.9 62.1 49% 84 30.01 1014.8
12 12:52 S 10 10.00 Fair CLR 82 63 82 64.9 53% 83 30.02 1015.5
12 11:52 S 8 10.00 Fair CLR 81 62.1 53% 82 30.03 1015.7
12 10:52 SW 8 10.00 Fair CLR 79 64 60% 81 30.04 1016.2
12 09:52 S 6 10.00 Fair CLR 75.9 66 72% 77 30.05 1016.3
12 08:52 S 8 10.00 Fair CLR 72 63 73% 30.05 1016.4
12 06:52 SE 8 10.00 Fair CLR 64.9 61 66 62.1 87% 30.03 1015.6
12 05:52 SE 6 10.00 Fair CLR 63 59 87% 30.02 1015.3
12 04:52 S 6 10.00 Fair CLR 63 59 87% 30.01 1015.1
12 03:52 S 5 10.00 Fair CLR 64 60.1 87% 30 1014.8
12 02:52 S 3 10.00 Fair CLR 64 60.1 87% 30 1014.8
12 01:52 Calm 10.00 Fair CLR 66 61 84% 30.01 1015.0
12 00:52 S 6 10.00 Fair CLR 66 61 80.1 64.9 84% 30.01 1015.1
11 23:52 Calm 10.00 Fair CLR 66 62.1 87% 30.01 1015.2
11 22:52 Calm 10.00 Fair CLR 68 61 78% 30 1014.9
11 21:52 Calm 10.00 Fair CLR 70 62.1 76% 29.98 1014.1
11 20:52 NE 6 10.00 Fair CLR 75 60.1 60% 77 29.97 1013.7
11 19:52 N 6 10.00 Fair CLR 77 59 54% 79 29.96 1013.5
11 18:52 N 3 10.00 Fair CLR 80.1 59 82 75.9 49% 81 29.96 1013.6
11 17:52 Calm 10.00 Fair CLR 80.1 57.9 47% 81 29.97 1013.9
11 16:52 NW 5 10.00 Fair CLR 81 59 47% 81 29.99 1014.5
11 15:52 SW 5 10.00 Fair CLR 80.1 57 45% 80 30 1014.8
11 14:52 Vrbl 5 10.00 Fair CLR 79 59 50% 80 30 1015.1
11 13:52 SW 8 10.00 Fair CLR 78.1 59 52% 79 30.01 1015.3
11 12:52 SW 6 10.00 Fair CLR 77 57 77 61 50% 79 30.02 1015.6
11 11:52 S 8 10.00 Fair CLR 75 59 58% 77 30.03 1015.8
11 10:52 SE 10 10.00 Fair CLR 73.9 59 60% 30.02 1015.6
11 09:52 S 9 10.00 Fair CLR 72 60.1 66% 30.03 1015.8
11 08:52 S 13 10.00 Fair CLR 69.1 59 70% 30.03 1015.9
11 07:52 SE 9 10.00 Fair CLR 64.9 57.9 78% 30.03 1016.0
11 06:52 SE 8 10.00 Fair CLR 61 57 63 57.9 87% 30.03 1015.9
11 05:52 S 7 10.00 Fair CLR 59 55 87% 30.02 1015.5
Date Time (cdt) Wind (mph) Vis. (mi.) Weather Sky Cond. Air Dwpt Max. Min. Relative Humidity Wind Chill (°F) Heat Index (°F) altimeter (in) sea level (mb) 1 hr 3 hr 6 hr
6 hour
Temperature (ºF) Pressure Precipitation (in)